This demonstration page uses our WeatherBlox Daily Observations layout. Learn more.

Left ArrowRight Arrow

Hourly Observations for November 25, 2021

Temp ( °F °C ) Dew Point ( °F °C ) Humidity (%) Winds ( mph kmh ) Pressure ( in mb ) Visibility ( mi km ) Precip ( " mm )
12:15 am 00:15 Clear 32 undefined 28 -2 87 87 W 3 6 30.30 1026 10 16 N/A
12:35 am 00:35 Clear 32 undefined 28 -2 87 87 WSW 3 6 30.30 1026 10 16 N/A
12:55 am 00:55 Clear 32 undefined 28 -2 87 87 N N/A 30.29 1026 10 16 N/A
1:15 am 01:15 Clear 34 1 27 -3 75 75 N N/A 30.28 1025 10 16 N/A
1:35 am 01:35 Clear 34 1 28 -2 81 81 N N/A 30.27 1025 10 16 N/A
1:55 am 01:55 Clear 32 undefined 28 -2 87 87 N N/A 30.28 1025 10 16 N/A
2:15 am 02:15 Clear 32 undefined 30 -1 93 93 N N/A 30.27 1025 10 16 N/A
2:35 am 02:35 Clear 34 1 28 -2 81 81 N N/A 30.27 1025 10 16 N/A
2:55 am 02:55 Clear 32 undefined 30 -1 93 93 N N/A 30.26 1025 10 16 N/A
3:15 am 03:15 Clear 32 undefined 28 -2 87 87 N N/A 30.25 1024 10 16 N/A
3:35 am 03:35 Clear 32 undefined 28 -2 87 87 N N/A 30.25 1024 10 16 N/A
3:55 am 03:55 Clear 32 undefined 30 -1 93 93 N N/A 30.24 1024 10 16 N/A
4:15 am 04:15 Clear 32 undefined 28 -2 87 87 N N/A 30.23 1024 10 16 N/A
4:35 am 04:35 Clear 32 undefined 30 -1 93 93 N N/A 30.23 1024 10 16 N/A
4:55 am 04:55 Clear 32 undefined 28 -2 87 87 N N/A 30.23 1024 10 16 N/A
5:15 am 05:15 Clear 30 -1 28 -2 93 93 N N/A 30.22 1023 10 16 N/A
5:35 am 05:35 Clear 32 undefined 28 -2 87 87 N 3 6 30.23 1024 10 16 N/A
5:55 am 05:55 Clear 32 undefined 28 -2 87 87 N N/A 30.21 1023 10 16 N/A
6:15 am 06:15 Clear 30 -1 28 -2 93 93 NW 3 6 30.21 1023 10 16 N/A
6:35 am 06:35 Clear 30 -1 28 -2 93 93 N N/A 30.20 1023 10 16 N/A
6:55 am 06:55 Clear 32 undefined 28 -2 87 87 N N/A 30.20 1023 10 16 N/A
7:15 am 07:15 Sunny 30 -1 28 -2 93 93 N N/A 30.20 1023 10 16 N/A
7:35 am 07:35 Sunny 32 undefined 30 -1 93 93 N N/A 30.19 1022 10 16 N/A
7:55 am 07:55 Sunny 32 undefined 28 -2 87 87 N N/A 30.19 1022 10 16 N/A
8:15 am 08:15 Sunny 32 undefined 28 -2 87 87 N N/A 30.17 1022 10 16 N/A
8:35 am 08:35 Sunny 32 undefined 30 -1 93 93 SSW 3 6 30.17 1022 10 16 N/A
8:55 am 08:55 Sunny 34 1 30 -1 87 87 N N/A 30.17 1022 10 16 N/A
9:15 am 09:15 Sunny 36 2 30 -1 81 81 N N/A 30.17 1022 10 16 N/A
9:35 am 09:35 Sunny 37 3 28 -2 70 70 N N/A 30.17 1022 10 16 N/A
9:55 am 09:55 Sunny 41 5 30 -1 66 66 N N/A 30.16 1021 10 16 N/A
10:15 am 10:15 Sunny 43 6 28 -2 57 57 N N/A 30.15 1021 10 16 N/A
10:35 am 10:35 Sunny 43 6 28 -2 57 57 N N/A 30.14 1021 10 16 N/A
10:55 am 10:55 Sunny 45 7 30 -1 57 57 N N/A 30.12 1020 10 16 N/A
11:15 am 11:15 Sunny 46 8 30 -1 53 53 ESE 5 7 30.10 1019 10 16 N/A
11:35 am 11:35 Sunny 46 8 32 undefined 57 57 N N/A 30.09 1019 10 16 N/A
11:55 am 11:55 Sunny 50 10 30 -1 47 47 N N/A 30.07 1018 10 16 N/A
12:15 pm 12:15 Sunny 52 11 32 undefined 47 47 N N/A 30.04 1017 10 16 N/A
12:35 pm 12:35 Sunny 52 11 32 undefined 47 47 ESE 5 7 30.02 1017 10 16 N/A
12:55 pm 12:55 Sunny 54 12 32 undefined 44 44 E 6 9 30.01 1016 10 16 N/A
1:15 pm 13:15 Sunny 54 12 32 undefined 44 44 N N/A 30.01 1016 10 16 N/A
1:35 pm 13:35 Sunny 54 12 32 undefined 44 44 N N/A 30.01 1016 10 16 N/A
1:55 pm 13:55 Mostly Cloudy 55 13 32 undefined 41 41 N N/A 30.00 1016 10 16 N/A
2:15 pm 14:15 Partly Cloudy 57 14 32 undefined 39 39 N N/A 29.99 1016 10 16 N/A
2:35 pm 14:35 Sunny 57 14 32 undefined 39 39 SSW 3 6 29.98 1015 10 16 N/A
2:55 pm 14:55 Partly Cloudy 59 15 32 undefined 36 36 SSE 5 7 29.97 1015 10 16 N/A
3:15 pm 15:15 Sunny 59 15 32 undefined 36 36 S 6 9 29.96 1015 10 16 N/A
3:35 pm 15:35 Sunny 59 15 32 undefined 36 36 S 7 11 29.95 1014 10 16 N/A
3:55 pm 15:55 Sunny 59 15 32 undefined 36 36 S 8 13 29.94 1014 10 16 N/A
4:15 pm 16:15 Sunny 59 15 32 undefined 36 36 S 8 13 29.93 1013 10 16 N/A
4:35 pm 16:35 Sunny 57 14 32 undefined 39 39 S 6 9 29.93 1014 10 16 N/A
4:55 pm 16:55 Clear 55 13 32 undefined 41 41 SSW 5 7 29.93 1014 10 16 N/A
5:15 pm 17:15 Clear 55 13 32 undefined 41 41 N N/A 29.93 1014 10 16 N/A
5:35 pm 17:35 Clear 55 13 32 undefined 41 41 S 3 6 29.93 1014 10 16 N/A
5:55 pm 17:55 Partly Cloudy 54 12 32 undefined 44 44 S 6 9 29.94 1014 10 16 N/A
6:15 pm 18:15 Partly Cloudy 52 11 32 undefined 47 47 N N/A 29.94 1014 10 16 N/A
6:35 pm 18:35 Mostly Cloudy 52 11 34 1 50 50 N N/A 29.93 1014 10 16 N/A
6:55 pm 18:55 Partly Cloudy 50 10 34 1 54 54 N N/A 29.93 1013 10 16 N/A
7:15 pm 19:15 Clear 50 10 34 1 54 54 N N/A 29.92 1013 10 16 N/A
7:35 pm 19:35 Partly Cloudy 46 8 34 1 62 62 N N/A 29.92 1013 10 16 N/A
7:55 pm 19:55 Partly Cloudy 50 10 34 1 54 54 N N/A 29.91 1013 10 16 N/A
8:15 pm 20:15 Cloudy 46 8 36 2 66 66 N N/A 29.90 1012 10 16 N/A
8:35 pm 20:35 Cloudy 46 8 37 3 71 71 NNW 3 6 29.90 1012 10 16 N/A
8:55 pm 20:55 Cloudy 48 9 36 2 62 62 N N/A 29.89 1012 10 16 N/A
9:15 pm 21:15 Cloudy 48 9 36 2 62 62 N 3 6 29.88 1012 10 16 N/A
9:35 pm 21:35 Cloudy 50 10 34 1 54 54 N N/A 29.88 1012 10 16 N/A
9:55 pm 21:55 Cloudy 50 10 36 2 58 58 N 3 6 29.87 1011 10 16 N/A
10:15 pm 22:15 Cloudy 50 10 37 3 62 62 NNW 8 13 29.87 1011 10 16 N/A
10:35 pm 22:35 Cloudy 52 11 43 6 72 72 NNW 6 9 29.85 1011 10 16 N/A
10:55 pm 22:55 Cloudy 52 11 43 6 72 72 NNW 5 7 29.85 1011 10 16 N/A
11:15 pm 23:15 Cloudy with Light Rain 52 11 45 7 77 77 NNW 5 7 29.84 1011 10 16 N/A
11:35 pm 23:35 Cloudy with Light Rain 54 12 45 7 72 72 NNW 7 11 29.83 1010 10 16 N/A
11:55 pm 23:55 Cloudy 52 11 45 7 77 77 N N/A 29.82 1010 10 16 N/A

Powered by AerisWeather